This is the latest recevied weather packets stored in our database for station/object WA9NNN-10. If no packets are shown the sender has not sent any weather packets the latest 1 day(s).
| Time | Temp. | Humidity | Pressure | Rain* | Wind** | Luminosity | Snow |
|---|---|---|---|---|---|---|---|
| 1836274784 | 23.89° C | 74% | 1016.7 hPa | 0 mm | 0 m/s | - | - |
| 1836274485 | 23.89° C | 74% | 1016.7 hPa | 0 mm | 0 m/s | - | - |
| 1836274335 | 23.89° C | 74% | 1016.7 hPa | 0 mm | 0.45 m/s, 359° | - | - |
| 1836274185 | 24.44° C | 74% | 1016.6 hPa | 0 mm | 0 m/s | - | - |
| 1836273884 | 24.44° C | 74% | 1016.8 hPa | 0 mm | 0 m/s | - | - |
| 1778032897 | 12.78° C | 41% | 1008.8 hPa | 0 mm | 0.45 m/s, 295° | - | - |
| 1778032597 | 12.78° C | 40% | 1008.9 hPa | 0 mm | 1.34 m/s, 322° | - | - |
| 1778032298 | 12.78° C | 40% | 1009 hPa | 0 mm | 0.89 m/s, 304° | - | - |
| 1778031997 | 12.78° C | 40% | 1008.8 hPa | 0 mm | 0.45 m/s, 311° | - | - |
| 1778031697 | 13.33° C | 40% | 1009 hPa | 0 mm | 0.45 m/s, 292° | - | - |
| 1778031398 | 13.33° C | 39% | 1008.7 hPa | 0 mm | 1.34 m/s, 283° | - | - |
| 1778031098 | 13.33° C | 39% | 1008.5 hPa | 0 mm | 0.89 m/s, 323° | - | - |
| 1778030797 | 13.33° C | 39% | 1008.5 hPa | 0 mm | 0.89 m/s, 300° | - | - |
| 1778030497 | 13.33° C | 38% | 1008.5 hPa | 0 mm | 0.89 m/s, 300° | - | - |
| 1778030197 | 13.33° C | 38% | 1008.5 hPa | 0 mm | 0.45 m/s, 299° | - | - |
| 1778029897 | 13.33° C | 38% | 1008.3 hPa | 0 mm | 1.34 m/s, 297° | - | - |
| 1778029597 | 13.33° C | 38% | 1008.2 hPa | 0 mm | 0.45 m/s, 359° | - | - |
| 1778029298 | 13.33° C | 38% | 1008.2 hPa | 0 mm | 1.34 m/s, 280° | - | - |
| 1778028997 | 13.33° C | 38% | 1008.3 hPa | 0 mm | 0.89 m/s, 273° | - | - |
| 1778028697 | 13.33° C | 38% | 1008.1 hPa | 0 mm | 0.45 m/s, 313° | - | - |
| 1778028397 | 13.33° C | 37% | 1008.3 hPa | 0 mm | 0.89 m/s, 299° | - | - |
| 1778028097 | 13.33° C | 37% | 1008.1 hPa | 0 mm | 1.79 m/s, 269° | - | - |
| 1778027797 | 13.33° C | 37% | 1008.2 hPa | 0 mm | 0.45 m/s, 271° | - | - |
| 1778027497 | 13.33° C | 37% | 1008.1 hPa | 0 mm | 1.34 m/s, 285° | - | - |
| 1778027197 | 13.33° C | 37% | 1008 hPa | 0 mm | 0.89 m/s, 290° | - | - |
* Rain latest hour (hover to see other rain measurements)
** Current wind speed in m/s (hover to see current wind gust speed)